Home   Weather   Qatif   Past weeks

Flag for Saudi Arabia Past Weather in Qatif, Saudi Arabia — Yesterday and Last 2 Weeks

Now
66 °F

Clear.


Feels Like: 66 °F
Forecast: 72 / 80 °F
Wind: 6 mph from Southwest

Location: King Fahd International Airport

Current Time: Dec 3, 2016 at 5:27:41 am

Latest Report: Dec 3, 2016 at 5:00 am


Visibility: 4 mi

Pressure: 30.04 "Hg

Humidity: 78%

Dew Point: 59 °F

Location of QatifLocation

Past Weather in Qatif — Graph

°F

Qatif Temperature Yesterday

Maximum temperature yesterday: 88 °F (at 1:00 pm)
Minimum temperature yesterday: 66 °F (at 4:00 am)
Average temperature yesterday: 75 °F

High & Low Weather Summary for the Past Weeks

 TemperatureHumidityPressure
High88 °F (Nov 18, 3:00 pm)88% (Nov 25, 7:00 pm)30.18 "Hg (Nov 25, 7:00 pm)
Low55 °F (Nov 22, 3:00 am)8% (Nov 21, 3:00 pm)29.92 "Hg (Nov 20, 2:00 pm)
Average69 °F56%30.03 "Hg
* Reported Nov 18 4:00 am — Dec 3 4:00 am, Qatif, Weather by CustomWeather, © 2016

Note: Actual official high and low records may vary slightly from our data, if they occured in-between our weather recording intervals... More about our weather records

Advertising

Qatif Weather History for the Previous 24 Hours

Scroll right to see more
 ConditionsComfort  
Time TempWeatherWind HumidityBarometerVisibility
4:00 am
Sat, Dec 3
68 °FClear.8 mph78%30.04 "Hg4 mi
3:00 am70 °FClear.9 mph78%30.04 "Hg4 mi
2:00 am70 °FClear.6 mph83%30.04 "Hg4 mi
1:00 am72 °FClear.3 mph73%30.04 "Hg4 mi
12:00 am73 °FClear.7 mph74%30.04 "Hg4 mi
11:00 pm
Fri, Dec 2
73 °FClear.12 mph74%30.04 "Hg5 mi
10:00 pm73 °FClear.8 mph69%30.04 "Hg5 mi
9:00 pm75 °FClear.8 mph65%30.04 "Hg5 mi
8:00 pm75 °FClear.6 mph57%30.01 "Hg4 mi
7:00 pm75 °FClear.8 mph57%30.01 "Hg5 mi
6:00 pm79 °FClear.8 mph51%30.01 "Hg5 mi
5:00 pm82 °FClear.6 mph45%29.98 "Hg4 mi
4:00 pm84 °FSunny.10 mph43%29.98 "Hg10 mi
3:00 pm88 °FSunny.14 mph33%29.98 "Hg10 mi
2:00 pm88 °FSunny.16 mph35%29.98 "Hg10 mi
1:00 pm88 °FSunny.17 mph31%29.98 "Hg10 mi
12:00 pm84 °FSunny.14 mph40%30.01 "Hg10 mi
11:00 am81 °FSunny.16 mph48%30.04 "Hg10 mi
10:00 am77 °FSunny.15 mph65%30.07 "Hg10 mi
9:00 am73 °FClear.13 mph78%30.07 "Hg4 mi
8:00 am68 °FFog.3 mph88%30.07 "Hg3 mi
7:00 am66 °FFog.3 mph88%30.01 "Hg2 mi
6:00 am66 °FFog.6 mph83%30.01 "Hg2 mi
5:00 am66 °FClear.5 mph83%30.01 "Hg4 mi
Weather by CustomWeather, © 2016

See weather overviewHow to use our weather pages